Zurück zum Katalog

STARLINK-3397

AktivKommunikationVLEO
NORAD 51115·PAYLOAD·🇺🇸 United States

Gestartet Jan 19, 2022 von Cape Canaveral Space Force Station

Loading…

Nächste Überflüge (nächste 24 Stunden)

TLE

AktuellSource: CelesTrak SupGP

Epoche: Sep 14, 2026, 13:15 UTC

1 51115C 22005M   26257.55256944  .00041075  00000+0  12466-2 0  2578
2 51115  53.1585 153.5357 0001227  94.4658  77.8107 15.33524435    15

Verfolge STARLINK-3397 in Echtzeit mit AllMySat

Download on the App Store